カタログに戻る

SL-8 R/B

運用中LEO
NORAD 12443·ROCKET BODY·🇷🇺 Russia

打ち上げ May 7, 1981 から Plesetsk Cosmodrome

Loading…

次のパス (今後24時間)

TLE

最新Source: Space-Track

元期: Sep 14, 2026, 13:03 UTC

1 12443U 81041B   26257.54395603  .00000107  00000-0  45814-4 0  9999
2 12443  74.0519 105.0442 0003260  91.2195 268.9331 14.36103335372076

AllMySatでSL-8 R/Bをリアルタイム追跡

Download on the App Store